SJ-16

Satellite information

Favourite Embed

Satellite Type and Status

PAYLOADIN ORBIT

Key statistics

Satellite SJ-16 at a glance.

Uptime

4273

Days in orbit

Revolutions

≈ 14.9

Per day

Orbit

LEO

Low Earth Orbit

Inclination

75.0

Latest

Satellite identification and parameters

Extended collection of information and parameters for SJ-16.

Object identification

Identified? True

Debris? False

Object name: SJ-16

International designator: 2013-057A

Object number (NORAD): 39358

Object ID (CCSDS): 39358

Country: PEOPLES REPUBLIC OF CHINA (PRC)

Current information (Y/N): Y

RCS size: LARGE

Orbital parameters

Period: 96.552 minutes

Inclination: 74.9725 deg

SMA: 6971.649 km

Apoapsis: 605.668 km

Periapsis: 581.359 km

RAAN: 290.1275 deg

Eccentricy: 0.0017434

Argument of periapsis: 347.2812 deg

Mean anomaly: 12.7933 deg

Mean motion: 14.91418498 rev/day

Mean motion (dot): 0.00001189 rev/day2

B* drag term: 0.00012164 1/REarth

Two-line elements (TLE)

Creation date: July 6, 2025, 10:56 p.m.

Reference frame: TEME

Reference center: EARTH

Epoch: July 6, 2025, 8:18 p.m. UTC

TLE line 0: 0 SJ-16

TLE line 1: 1 39358U 13057A 25187.84638969 .00001189 00000-0 12164-3 0 9996

TLE line 2: 2 39358 74.9725 290.1275 0017434 347.2812 12.7933 14.91418498634913

Live tracking on map

Real-time ground track for satellite SJ-16.

In-orbit conjunctions

There are no conjunctions computed for SJ-16, at the moment. Check back to stay up to date, as we update our databases every day.

Go to all conjunctions

Associated space launch

SJ-16 was lifted into orbit during the mission ‘Long March 4B | Shijian 16’, on board a Long March 4B space rocket.

The launch took place on Oct. 25, 2013, 3:50 a.m. from Launch Area 4 (SLS-2 / 603).

For more information about the launch, click the button.

Launch to space Long March 4B | Shijian 16
Long March 4B | Shijian 16

Agency: N/A

Status: Launch Successful

Launch date: Oct. 25, 2013, 3:50 a.m. UTC

Rocket: Long March 4B

Launch pad: Launch Area 4 (SLS-2 / 603)

Location: Jiuquan Satellite Launch Center, People's Republic of China

...

Latest news about this satellite

There are no fresh news available about this satellite. Check back as we update our databases every day.


Newsletter sign-up

Weekly statistics, charts and insights to help you stay on top of the space industry.